New York, NY

5:13 PM EST on December 08, 2019 (GMT -0500)
La Guardia

Weather History for KLGA - October, 2019

Change the Weather History Date:

Tuesday, October 29, 2019

  Actual Average Record
Temperature  
Mean Temperature 56 °F 54 °F  
Max Temperature 57 °F 61 °F 77 °F (1946)
Min Temperature 53 °F 47 °F 33 °F (2011)
Degree Days  
Heating Degree Days 10 11  
Month to date heating degree days 142 213  
Since 1 July heating degree days 145 248  
Cooling Degree Days 0 0  
Month to date cooling degree days 29 20  
Year to date cooling degree days 1484 1210  
Growing Degree Days 6 (Base 50)    
Moisture  
Dew Point 54 °F    
Average Humidity 93    
Maximum Humidity 100    
Minimum Humidity 86    
Precipitation  
Precipitation 0.10 in 0.11 in 2.78 in (2017)
Month to date precipitation 5.15 3.55  
Year to date precipitation 41.63 37.53  
Snow  
Snow 0.00 in 0.00 in 1.70 in (2011)
Month to date snowfall 0.0 0.0  
Since 1 July snowfall 0.0 0.0  
Snow Depth 0.00 in    
Sea Level Pressure  
Sea Level Pressure 30.28 in    
Wind  
Wind Speed 8 mph ()    
Max Wind Speed 13 mph    
Max Gust Speed 21 mph    
Visibility 4.6 miles    
Events Rain    
T = Trace of Precipitation, MM = Missing Value Source: Averaged Metar Reports

Daily Weather History Graph

Daily Weather History Graph

Search for Another Location

Airport or City:

Astronomy

Oct. 29, 2019 Rise Set
Actual Time 7:22 AM EDT 5:55 PM EDT
Civil Twilight 6:53 AM EDT 6:23 PM EDT
Nautical Twilight 6:21 AM EDT 6:56 PM EDT
Astronomical Twilight 5:49 AM EDT 7:27 PM EDT
Moon 8:52 AM EDT (10/29) 7:17 PM EDT (10/29)
Length of Visible Light 11h 30m
Length of Day
10h 33m
Waxing Crescent, 3% of the Moon is Illuminated
Oct 29
Waxing Crescent
Nov 4
First Quarter
Nov 12
Full
Nov 19
Last Quarter
Nov 26
New

Hourly Weather History & Observations

Time (EDT) Temp. Dew Point Humidity Pressure Visibility Wind Dir Wind Speed Gust Speed Precip Events Conditions
12:51 AM 54.0 °F 51.1 °F 90% 30.30 in 10.0 mi ENE 6.9 mph - N/A   Overcast
1:48 AM 53.6 °F 50.0 °F 88% 30.30 in 10.0 mi East 10.4 mph - N/A   Overcast
1:51 AM 54.0 °F 50.0 °F 86% 30.30 in 10.0 mi East 9.2 mph - N/A   Overcast
2:43 AM 54.0 °F 50.0 °F 86% 30.30 in 10.0 mi East 9.2 mph - N/A   Overcast
2:51 AM 54.0 °F 50.0 °F 86% 30.30 in 10.0 mi East 9.2 mph - N/A   Overcast
3:51 AM 53.1 °F 50.0 °F 89% 30.29 in 10.0 mi East 10.4 mph - N/A   Overcast
4:51 AM 53.1 °F 50.0 °F 89% 30.28 in 10.0 mi East 8.1 mph - N/A   Mostly Cloudy
5:51 AM 53.1 °F 50.0 °F 89% 30.29 in 10.0 mi East 5.8 mph - N/A   Overcast
6:01 AM 53.1 °F 50.0 °F 89% 30.29 in 10.0 mi East 8.1 mph - N/A   Overcast
6:18 AM 54.0 °F 50.0 °F 86% 30.29 in 10.0 mi ENE 6.9 mph - N/A   Overcast
6:51 AM 53.1 °F 50.0 °F 89% 30.30 in 10.0 mi East 8.1 mph - N/A   Overcast
7:51 AM 53.1 °F 50.0 °F 89% 30.29 in 10.0 mi ENE 10.4 mph - 0.00 in   Overcast
8:18 AM 54.0 °F 51.1 °F 90% 30.30 in 10.0 mi ENE 10.4 mph - N/A   Overcast
8:51 AM 55.0 °F 51.1 °F 86% 30.30 in 10.0 mi ENE 11.5 mph - N/A   Overcast
9:51 AM 55.0 °F 52.0 °F 89% 30.31 in 2.0 mi ENE 9.2 mph - N/A   Overcast
10:00 AM 55.0 °F 52.0 °F 89% 30.31 in 2.0 mi ENE 9.2 mph - 0.00 in   Light Drizzle
10:43 AM 55.0 °F 52.0 °F 89% 30.31 in 2.5 mi NE 8.1 mph - 0.00 in   Light Drizzle
10:51 AM 55.9 °F 53.1 °F 90% 30.31 in 2.5 mi NE 9.2 mph 20.7 mph 0.00 in   Light Drizzle
11:23 AM 55.9 °F 54.0 °F 93% 30.31 in 2.0 mi NE 10.4 mph - 0.00 in Rain Light Rain
11:38 AM 55.9 °F 54.0 °F 93% 30.31 in 1.8 mi NE 9.2 mph - 0.00 in Rain Light Rain
11:51 AM 57.0 °F 55.0 °F 93% 30.32 in 1.0 mi NE 8.1 mph - 0.00 in Rain Light Rain
12:51 PM 57.0 °F 55.0 °F 93% 30.29 in 1.5 mi NE 8.1 mph - 0.01 in Rain Light Rain
1:51 PM 57.0 °F 55.0 °F 93% 30.27 in 1.5 mi NE 10.4 mph - 0.00 in Rain Light Rain
2:22 PM 57.0 °F 55.0 °F 93% 30.27 in 1.5 mi NE 10.4 mph - 0.00 in Rain Light Rain
2:51 PM 57.0 °F 55.9 °F 96% 30.26 in 1.5 mi NE 10.4 mph - 0.02 in Rain Light Rain
3:44 PM 57.0 °F 55.9 °F 96% 30.26 in 1.5 mi NE 10.4 mph - 0.00 in Rain Light Rain
3:51 PM 57.0 °F 55.9 °F 96% 30.26 in 1.5 mi NE 10.4 mph - 0.00 in Rain Light Rain
4:51 PM 57.0 °F 55.9 °F 96% 30.26 in 4.0 mi ENE 10.4 mph - 0.01 in Rain Light Rain
5:30 PM 57.9 °F 57.0 °F 97% 30.26 in 3.0 mi NE 9.2 mph - 0.00 in Rain Light Rain
5:51 PM 57.0 °F 55.9 °F 96% 30.26 in 2.5 mi NE 8.1 mph - 0.01 in Rain Light Rain
6:08 PM 57.0 °F 57.0 °F 100% 30.26 in 3.0 mi NE 9.2 mph - 0.00 in Rain Light Rain
6:31 PM 57.0 °F 57.0 °F 100% 30.27 in 2.0 mi NE 8.1 mph - 0.01 in Rain Light Rain
6:51 PM 57.0 °F 57.0 °F 100% 30.27 in 2.0 mi NE 9.2 mph - 0.01 in Rain Light Rain
7:51 PM 57.9 °F 57.0 °F 97% 30.27 in 2.0 mi NE 9.2 mph - 0.01 in Rain Light Rain
8:34 PM 57.9 °F 57.0 °F 97% 30.27 in 1.5 mi NE 8.1 mph - 0.02 in Rain Light Rain
8:51 PM 57.9 °F 57.0 °F 97% 30.27 in 1.5 mi NE 8.1 mph - 0.02 in Rain Light Rain
8:59 PM 57.9 °F 57.0 °F 97% 30.26 in 1.5 mi NE 8.1 mph - 0.00 in Rain Light Rain
9:51 PM 57.9 °F 57.0 °F 97% 30.27 in 1.5 mi ENE 6.9 mph - 0.01 in Rain Light Rain
10:22 PM 57.9 °F 57.0 °F 97% 30.27 in 2.0 mi NE 5.8 mph - 0.00 in   Light Drizzle
10:48 PM 57.2 °F 57.2 °F 100% 30.27 in 1.0 mi NNE 5.8 mph - 0.00 in   Overcast
10:51 PM 57.0 °F 57.0 °F 100% 30.27 in 1.0 mi NNE 4.6 mph - 0.00 in   Overcast
11:51 PM 57.9 °F 57.9 °F 100% 30.27 in 1.0 mi NE 4.6 mph - N/A   Overcast